Regional Weather Roundup
Issued by NWS Kansas City/Pleasant Hill, MO

Home | Current Version | Previous Version | Graphics & Text | Print | Product List | Glossary Off
Versions: 1 2 3 4 5 6 7 8 9 10 11 12 13 14 15 16 17 18 19 20 21 22 23 24 25 26 27 28 29 30 31 32 33 34 35 36 37 38 39 40 41 42 43 44 45 46 47 48 49 50

000
ASUS43 KEAX 300510
RWREAX

WEATHER ROUNDUP FOR EASTERN KANSAS AND NORTHWEST MISSOURI
NATIONAL WEATHER SERVICE KANSAS CITY/PLEASANT HILL MO
1200 AM CDT SAT MAY 30 2015

KSZ040-057-103>105-MOZ028-029-037-043-300600-
...KANSAS CITY METROPOLITAN AREA...

CITY           SKY/WX    TMP DP  RH WIND       PRES   REMARKS
K.C. INTL      CLOUDY    63  62  97 S6        29.99S
K.C. DOWNTOWN  CLOUDY    66  63  90 S5        29.98F
LEES SUMMIT    CLOUDY    64  62  93 W3        29.99F
OLATHE - IXD   CLOUDY    64  64 100 SE6       30.00F
OLATHE - OJC   CLOUDY    63  63 100 S3        29.98F FOG
LAWRENCE       CLOUDY    64  63  96 CALM      29.99S

$$

MOZ001>008-011>017-020>025-030>033-038>040-044>046-053-054-300600-
...NORTHERN AND CENTRAL MISSOURI...

CITY           SKY/WX    TMP DP  RH WIND       PRES   REMARKS
ST. JOSEPH     CLOUDY    66  65  96 SW5       29.98R
MOSBY          CLOUDY    64  64 100 CALM      29.98F
HARRISONVILLE  CLOUDY    64  63  94 CALM      30.01F FOG
WARRENSBURG    FOG       63  63 100 CALM      29.98F VSB 1/2
WHITEMAN AFB   CLOUDY    66  64  94 N3        29.97F
CLINTON        CLOUDY    66  66 100 N5        29.98F
SEDALIA        CLOUDY    67  64  90 E6        29.99F
WARSAW         CLOUDY    66  66 100 CALM      29.97F
CHILLICOTHE      N/A     67  64  90 S5        29.98F
MOBERLY        LGT RAIN  68  63  83 CALM      30.00S
KIRKSVILLE     CLOUDY    67  66  97 S6        29.99F

$$

MOZ041-047>049-056>058-063>065-088>090-097-300600-
...EASTERN AND SOUTHERN MISSOURI...

CITY           SKY/WX    TMP DP  RH WIND       PRES   REMARKS
ST. LOUIS INTL LGT RAIN  72  66  83 CALM      30.00R
SPIRIT OF STL  LGT RAIN  68  67  96 CALM      29.97F
COLUMBIA       RAIN      66  65  96 NE5       29.99S FOG
JEFFERSON CITY LGT RAIN  68  65  90 W8        29.98S
MEXICO         RAIN     N/A N/A N/A CALM      30.00
ROLLA          RAIN      66  65  96 SE7       29.98R
LEBANON        RAIN      66  64  94 CALM      30.00R
OSAGE BEACH    CLOUDY    66  64  94 CALM      29.98R
SPRINGFIELD    LGT RAIN  67  65  93 CALM      29.96F
BRANSON        LGT RAIN  64  64 100 CALM      29.97S
NEVADA         CLOUDY    64  64 100 N6        29.98F
JOPLIN         CLOUDY    64  63  96 NW8       29.97F
WEST PLAINS    LGT RAIN  66  64  93 E3        30.00S
MALDEN         PTCLDY    73  68  83 SE9       29.99R

$$

IAZ060-094-KSZ022-034>040-054-083-096-NEZ052-066-093-300600-
...KANSAS...SOUTHEAST NEBRASKA AND IOWA...

CITY           SKY/WX    TMP DP  RH WIND       PRES   REMARKS
TOPEKA         CLOUDY    65  64  97 CALM      29.99S
MANHATTAN      CLOUDY    62  57  83 N9        30.00F
EMPORIA        CLOUDY    64  64 100 S5        29.99S
CHANUTE        CLOUDY    64  63  96 CALM      29.99S FOG
WICHITA        CLOUDY    67  54  63 N12G22    30.02S
OMAHA          CLOUDY    55  51  86 N20G29    30.06R
LINCOLN        CLOUDY    56  50  80 N21       30.10S
FALLS CITY     LGT RAIN  63  60  90 NW13G21   30.00R
LAMONI         CLOUDY    66  63  90 SW6       29.98R
DES MOINES     LGT RAIN  64  61  90 N15       29.97R

$$



USA.gov is the U.S. government's official web portal to all federal, state and local government web resources and services.